Decorah, Iowa, United States (52101)
Lat: 43.30N, Lon: 91.79W
Wx Zone: IAZ010
Local Info
Past Weather Observations for Today

NOTE: This archive is for the closest National Weather Service station to Decorah. Information may differ from the station used for current weather conditions.

Click here for Long-term Archive

Time Weather Temperature Dewpoint Humidity Pressure Winds Precip Visibility
21:35
Overcast
Light Snow
32°F / 0°C 27°F / -3°C 80% 29.68 in
(1005 mb)
NW 16.1 mph
(NW 26 kph)
- 10SM
21:15
Overcast
Light Snow
32°F / 0°C 32°F / 0°C 100% 29.65 in
(1004 mb)
NW 13.8 mph
(NW 22 kph)
- 5SM
20:55
Overcast
Light Snow
34°F / 1°C 34°F / 1°C 100% 29.68 in
(1005 mb)
WNW 8.1 mph
(WNW 13 kph)
- 2SM
20:35
Overcast
Light Unknown Precip
34°F / 1°C 34°F / 1°C 100% 29.68 in
(1005 mb)
WNW 5.8 mph
(WNW 9 kph)
- 4SM
20:15
Overcast
34°F / 1°C 34°F / 1°C 100% 29.68 in
(1005 mb)
W 10.4 mph
(W 17 kph)
- 10SM
19:55
Overcast
34°F / 1°C 34°F / 1°C 100% 29.68 in
(1005 mb)
Variable 6.9 mph
(Variable 11 kph)
- 10SM
19:35
Overcast
34°F / 1°C 32°F / 0°C 93% 29.68 in
(1005 mb)
SSW 9.2 mph
(SSW 15 kph)
- 10SM
19:15
Overcast
Light Snow
34°F / 1°C 32°F / 0°C 93% 29.68 in
(1005 mb)
W 9.2 mph
(W 15 kph)
- 10SM
18:55
Overcast
Light Snow
34°F / 1°C 32°F / 0°C 93% 29.68 in
(1005 mb)
W 9.2 mph
(W 15 kph)
- 7SM
18:35
Overcast
36°F / 2°C 30°F / -1°C 81% 29.68 in
(1005 mb)
SSW 9.2 mph
(SSW 15 kph)
- 10SM
18:15
Overcast
36°F / 2°C 30°F / -1°C 81% 29.68 in
(1005 mb)
SSW 8.1 mph
(SSW 13 kph)
- 10SM
17:55
Overcast
36°F / 2°C 28°F / -2°C 75% 29.68 in
(1005 mb)
SSW 10.4 mph
(SSW 17 kph)
- 10SM
17:35
Partly Cloudy
36°F / 2°C 28°F / -2°C 75% 29.71 in
(1006 mb)
W 12.7 mph
(W 20 kph)
- 10SM
17:15
Clear
36°F / 2°C 28°F / -2°C 75% 29.71 in
(1006 mb)
W 11.5 mph
(W 19 kph)
- 10SM
16:55
Clear
36°F / 2°C 28°F / -2°C 75% 29.71 in
(1006 mb)
SSW 9.2 mph
(SSW 15 kph)
- 10SM
16:35
Clear
37°F / 3°C 28°F / -2°C 70% 29.68 in
(1005 mb)
SSW 9.2 mph
(SSW 15 kph)
- 10SM
16:15
Clear
37°F / 3°C 28°F / -2°C 70% 29.68 in
(1005 mb)
W 10.4 mph
(W 17 kph)
- 10SM
15:55
Partly Cloudy
37°F / 3°C 28°F / -2°C 70% 29.68 in
(1005 mb)
SSW 8.1 mph
(SSW 13 kph)
- 10SM
15:35
Clear
37°F / 3°C 28°F / -2°C 70% 29.68 in
(1005 mb)
SSW 9.2 mph
(SSW 15 kph)
- 10SM
15:15
Clear
37°F / 3°C 28°F / -2°C 70% 29.68 in
(1005 mb)
SSW 12.7 mph
(SSW 20 kph)
- 10SM
14:55
Clear
39°F / 4°C 28°F / -2°C 65% 29.68 in
(1005 mb)
SSW 11.5 mph
(SSW 19 kph)
- 10SM
14:35
Clear
37°F / 3°C 28°F / -2°C 70% 29.68 in
(1005 mb)
SSW 10.4 mph
(SSW 17 kph)
- 10SM
14:15
Clear
37°F / 3°C 28°F / -2°C 70% 29.68 in
(1005 mb)
SSW 11.5 mph
(SSW 19 kph)
- 10SM
13:55
Clear
39°F / 4°C 27°F / -3°C 61% 29.68 in
(1005 mb)
W 13.8 mph
(W 22 kph)
- 10SM
13:35
Clear
41°F / 5°C 27°F / -3°C 57% 29.68 in
(1005 mb)
WNW 13.8 mph
(WNW 22 kph)
- 10SM
13:15
Clear
37°F / 3°C 27°F / -3°C 65% 29.68 in
(1005 mb)
W 9.2 mph
(W 15 kph)
- 10SM
12:55
Clear
37°F / 3°C 27°F / -3°C 65% 29.68 in
(1005 mb)
WNW 13.8 mph
(WNW 22 kph)
- 10SM
12:35
Clear
37°F / 3°C 27°F / -3°C 65% 29.71 in
(1006 mb)
WNW 11.5 mph
(WNW 19 kph)
- 10SM
12:15
Clear
37°F / 3°C 27°F / -3°C 65% 29.71 in
(1006 mb)
SSW 11.5 mph
(SSW 19 kph)
- 10SM
11:55
Clear
37°F / 3°C 27°F / -3°C 65% 29.71 in
(1006 mb)
WNW 10.4 mph
(WNW 17 kph)
- 10SM
11:35
Clear
37°F / 3°C 27°F / -3°C 65% 29.71 in
(1006 mb)
SSW 9.2 mph
(SSW 15 kph)
- 10SM
11:15
Clear
37°F / 3°C 27°F / -3°C 65% 29.71 in
(1006 mb)
W 11.5 mph
(W 19 kph)
- 10SM
10:55
Clear
37°F / 3°C 27°F / -3°C 65% 29.74 in
(1007 mb)
W 9.2 mph
(W 15 kph)
- 10SM
10:35
Clear
36°F / 2°C 27°F / -3°C 70% 29.74 in
(1007 mb)
SSW 9.2 mph
(SSW 15 kph)
- 10SM
10:15
Clear
36°F / 2°C 27°F / -3°C 70% 29.71 in
(1006 mb)
W 11.5 mph
(W 19 kph)
-
09:55
Partly Cloudy
36°F / 2°C 27°F / -3°C 70% 29.71 in
(1006 mb)
W 10.4 mph
(W 17 kph)
- 10SM
09:35
Mostly Cloudy
34°F / 1°C 27°F / -3°C 75% 29.71 in
(1006 mb)
W 9.2 mph
(W 15 kph)
- 10SM
09:15
Mostly Cloudy
34°F / 1°C 28°F / -2°C 81% 29.71 in
(1006 mb)
W 8.1 mph
(W 13 kph)
- 10SM
08:55
Partly Cloudy
34°F / 1°C 27°F / -3°C 75% 29.71 in
(1006 mb)
W 9.2 mph
(W 15 kph)
- 10SM
08:35
Clear
32°F / 0°C 28°F / -2°C 87% 29.71 in
(1006 mb)
SSW 9.2 mph
(SSW 15 kph)
- 10SM
08:15
Clear
32°F / 0°C 28°F / -2°C 87% 29.71 in
(1006 mb)
W 8.1 mph
(W 13 kph)
- 10SM
07:55
Clear
32°F / 0°C 28°F / -2°C 87% 29.71 in
(1006 mb)
SSW 8.1 mph
(SSW 13 kph)
- 10SM
07:35
Clear
32°F / 0°C 28°F / -2°C 87% 29.71 in
(1006 mb)
Variable 5.8 mph
(Variable 9 kph)
- 10SM
07:15
Clear
32°F / 0°C 28°F / -2°C 87% 29.71 in
(1006 mb)
Variable 4.6 mph
(Variable 7 kph)
- 10SM
06:55
Clear
32°F / 0°C 28°F / -2°C 87% 29.71 in
(1006 mb)
SW 8.1 mph
(SW 13 kph)
- 10SM
06:35
Clear
32°F / 0°C 28°F / -2°C 87% 29.71 in
(1006 mb)
SSW 8.1 mph
(SSW 13 kph)
- 10SM
06:15
Clear
34°F / 1°C 28°F / -2°C 81% 29.71 in
(1006 mb)
SSW 8.1 mph
(SSW 13 kph)
- 10SM
05:55
Clear
34°F / 1°C 30°F / -1°C 87% 29.71 in
(1006 mb)
SSW 8.1 mph
(SSW 13 kph)
- 10SM
05:35
Clear
34°F / 1°C 30°F / -1°C 87% 29.71 in
(1006 mb)
SSW 12.7 mph
(SSW 20 kph)
- 10SM
05:15
Partly Cloudy
34°F / 1°C 30°F / -1°C 87% 29.71 in
(1006 mb)
SSW 8.1 mph
(SSW 13 kph)
- 10SM
04:55
Partly Cloudy
36°F / 2°C 30°F / -1°C 81% 29.71 in
(1006 mb)
SW 8.1 mph
(SW 13 kph)
- 10SM
04:35
Overcast
36°F / 2°C 30°F / -1°C 81% 29.74 in
(1007 mb)
SSW 8.1 mph
(SSW 13 kph)
- 10SM
04:15
Overcast
36°F / 2°C 30°F / -1°C 81% 29.74 in
(1007 mb)
Variable 5.8 mph
(Variable 9 kph)
- 10SM
03:55
Overcast
36°F / 2°C 30°F / -1°C 81% 29.71 in
(1006 mb)
SSW 9.2 mph
(SSW 15 kph)
- 10SM
03:35
Overcast
36°F / 2°C 30°F / -1°C 81% 29.74 in
(1007 mb)
SSW 10.4 mph
(SSW 17 kph)
- 10SM
03:15
Overcast
36°F / 2°C 30°F / -1°C 81% 29.71 in
(1006 mb)
SW 12.7 mph
(SW 20 kph)
- 10SM
02:55
Overcast
36°F / 2°C 30°F / -1°C 81% 29.74 in
(1007 mb)
SW 15 mph
(SW 24 kph)
- 10SM
02:35
Overcast
36°F / 2°C 30°F / -1°C 81% 29.74 in
(1007 mb)
SW 16.1 mph
(SW 26 kph)
- 10SM
02:15
Overcast
36°F / 2°C 30°F / -1°C 81% 29.74 in
(1007 mb)
SW 11.5 mph
(SW 19 kph)
- 10SM
01:55
Overcast
36°F / 2°C 30°F / -1°C 81% 29.77 in
(1008 mb)
SW 11.5 mph
(SW 19 kph)
- 10SM
01:35
Overcast
36°F / 2°C 32°F / 0°C 87% 29.8 in
(1009 mb)
SW 9.2 mph
(SW 15 kph)
- 10SM
01:15
Overcast
34°F / 1°C 32°F / 0°C 93% 29.8 in
(1009 mb)
SW 11.5 mph
(SW 19 kph)
- 10SM
00:55
Overcast
34°F / 1°C 32°F / 0°C 93% 29.83 in
(1010 mb)
SSE 8.1 mph
(SSE 13 kph)
- 10SM
00:35
Overcast
34°F / 1°C 32°F / 0°C 93% 29.83 in
(1010 mb)
SW 11.5 mph
(SW 19 kph)
- 10SM
00:15
Overcast
34°F / 1°C 32°F / 0°C 93% 29.86 in
(1011 mb)
Variable 5.8 mph
(Variable 9 kph)
- 10SM
Time Weather Temperature Dewpoint Humidity Pressure Winds Precip Visibility


Weather for websites

WeatherForYou.com, LLC is not responsible for any damages or problems caused by this service. Current weather conditions are obtained from the closest station including government and personal stations which may have varying degrees of accuracy. Weather forecasts are derived from the NOAA NDFD. Like all things, this site belongs to Jesus Christ... He just trusts us to maintain it. If you have any questions or comments email webmaster@weatherforyou.com

Copyright © 2016, WeatherForYou.com LLC. All rights reserved.